GW3424 Weather Reports


time (UTC)temp
C
wind
direction
speed
KPH
gust
KPH
rain 1hr
cm
rain 24hr
cm
rain mn
cm
humidity
%
barometer
mb
20260502164041 27 360 22.5 38.6 0.00 0.00 0.00 30 978.2
20260502163545 27 360 29.0 46.7 0.00 0.00 0.00 30 978.1
20260502163049 27 360 30.6 46.7 0.00 0.00 0.00 30 978.1
20260502162542 27 360 24.1 43.5 0.00 0.00 0.00 31 978.1
20260502162041 27 360 27.4 43.5 0.00 0.00 0.00 31 978.1
20260502161543 27 360 29.0 40.2 0.00 0.00 0.00 31 978.1
20260502161041 27 360 29.0 40.2 0.00 0.00 0.00 31 978.0
20260502160541 27 360 30.6 40.2 0.00 0.00 0.00 31 978.0
20260502152041 26 360 20.9 29.0 0.00 0.00 0.00 32 977.7
20260502151553 26 360 22.5 29.0 0.00 0.00 0.00 31 977.7
20260502151041 25 360 19.3 27.4 0.00 0.00 0.00 32 977.8
20260502150543 25 360 16.1 30.6 0.00 0.00 0.00 32 977.6
20260502130543 20 360 4.8 8.0 0.00 0.00 0.00 29 976.3
20260502123545 21 360 8.0 14.5 0.00 0.00 0.00 28 975.8
20260502123043 20 360 4.8 14.5 0.00 0.00 0.00 29 975.7
20260502122544 20 360 4.8 9.7 0.00 0.00 0.00 30 975.8
20260502122041 19 360 6.4 12.9 0.00 0.00 0.00 30 975.7
20260502121541 19 360 6.4 9.7 0.00 0.00 0.00 31 975.6
20260502121044 18 360 6.4 12.9 0.00 0.00 0.00 31 975.6
20260502120541 18 360 8.0 16.1 0.00 0.00 0.00 31 975.7
20260502115545 19 360 9.7 16.1 0.00 0.00 0.00 30 975.7
20260502115041 19 360 11.3 16.1 0.00 0.00 0.00 30 975.7
20260502114554 20 360 11.3 14.5 0.00 0.00 0.00 30 975.7
20260502114041 21 360 8.0 12.9 0.00 0.00 0.00 29 975.6
20260502113545 21 360 6.4 14.5 0.00 0.00 0.00 28 975.6
20260502113044 20 360 9.7 14.5 0.00 0.00 0.00 29 975.6
20260502112541 18 360 8.0 14.5 0.00 0.00 0.00 31 975.6
20260502112041 17 360 6.4 12.9 0.00 0.00 0.00 33 975.5
20260502111547 17 360 4.8 14.5 0.00 0.00 0.00 34 975.4
20260502111041 17 360 8.0 14.5 0.00 0.00 0.00 35 975.4
20260502110541 16 360 6.4 12.9 0.00 0.00 0.00 35 975.3
20260502110041 16 360 8.0 14.5 0.00 0.00 0.00 35 975.3
20260502105543 16 360 9.7 14.5 0.00 0.00 0.00 34 975.2
20260502105042 16 360 8.0 16.1 0.00 0.00 0.00 34 975.2
20260502104549 16 360 8.0 14.5 0.00 0.00 0.00 34 975.3
20260502104041 17 360 11.3 17.7 0.00 0.00 0.00 34 975.4
20260502103541 17 360 8.0 17.7 0.00 0.00 0.00 33 975.3
20260502103041 19 360 12.9 16.1 0.00 0.00 0.00 31 975.3
20260502102542 20 360 9.7 12.9 0.00 0.00 0.00 28 975.4
20260502102042 20 360 4.8 6.4 0.00 0.00 0.00 29 975.2
20260502101609 20 360 3.2 4.8 0.00 0.00 0.00 29 975.2
20260502101041 20 360 1.6 8.0 0.00 0.00 0.00 29 975.2
20260502100544 20 360 3.2 9.7 0.00 0.00 0.00 28 975.2
20260502091041 23 360 0.0 4.8 0.00 0.00 0.00 25 974.7
20260502090541 23 360 1.6 4.8 0.00 0.00 0.00 25 974.7
20260502071041 27 360 11.3 16.1 0.00 0.00 0.00 16 974.0
20260502070541 28 360 4.8 16.1 0.00 0.00 0.00 18 973.9
20260502070055 28 360 8.0 16.1 0.00 0.00 0.00 16 973.8
20260502065541 28 360 9.7 20.9 0.00 0.00 0.00 15 973.9
20260502065041 28 360 12.9 20.9 0.00 0.00 0.00 15 974.0
20260502064545 28 360 12.9 20.9 0.00 0.00 0.00 15 973.9
20260502064041 28 360 14.5 22.5 0.00 0.00 0.00 15 973.9
20260502063541 29 360 14.5 24.1 0.00 0.00 0.00 15 973.8
20260502063041 29 360 11.3 24.1 0.00 0.00 0.00 15 973.8
20260502062545 29 360 14.5 22.5 0.00 0.00 0.00 15 973.9
20260502062042 29 360 14.5 29.0 0.00 0.00 0.00 15 973.8
20260502061543 29 360 16.1 29.0 0.00 0.00 0.00 15 973.8
20260502061041 30 360 14.5 29.0 0.00 0.00 0.00 15 973.8
20260502060541 30 360 14.5 25.7 0.00 0.00 0.00 15 973.7
20260502060041 30 360 12.9 27.4 0.00 0.00 0.00 15 973.7
20260502055543 30 360 14.5 30.6 0.00 0.00 0.00 15 973.7
20260502055041 30 360 16.1 37.0 0.00 0.00 0.00 15 973.7
20260502054543 30 360 11.3 25.7 0.00 0.00 0.00 15 973.7
20260502054041 30 360 12.9 25.7 0.00 0.00 0.00 15 973.6
20260502053541 30 360 12.9 25.7 0.00 0.00 0.00 15 973.7
20260502053043 30 360 14.5 30.6 0.00 0.00 0.00 15 973.5
20260502052541 29 360 14.5 30.6 0.00 0.00 0.00 15 973.6
20260502052044 29 360 9.7 25.7 0.00 0.00 0.00 16 973.7
20260502051601 28 360 12.9 25.7 0.00 0.00 0.00 16 973.7
20260502051041 27 360 9.7 16.1 0.00 0.00 0.00 18 973.7
20260502050541 26 360 0.0 4.8 0.00 0.00 0.00 20 973.6
20260502050041 27 360 0.0 4.8 0.00 0.00 0.00 21 973.5
20260502045540 27 360 1.6 4.8 0.00 0.00 0.00 19 973.3
20260502045041 27 360 0.0 0.0 0.00 0.00 0.00 18 973.4
20260502044545 27 360 0.0 4.8 0.00 0.00 0.00 22 973.3
20260502044041 27 360 1.6 8.0 0.00 0.00 0.00 19 973.5
20260502043541 28 360 0.0 8.0 0.00 0.00 0.00 17 973.4
20260502043041 28 360 0.0 4.8 0.00 0.00 0.00 18 973.3
20260502042541 28 360 0.0 4.8 0.00 0.00 0.00 17 973.1
20260502042041 29 360 1.6 4.8 0.00 0.00 0.00 16 973.1
20260502041542 29 360 3.2 4.8 0.00 0.00 0.00 15 973.1
20260502041041 29 360 1.6 6.4 0.00 0.00 0.00 15 973.1
20260502040541 29 360 3.2 6.4 0.00 0.00 0.00 15 973.0
20260502040052 30 360 1.6 8.0 0.00 0.00 0.00 15 973.2
20260502035541 30 360 3.2 8.0 0.00 0.00 0.00 14 973.0
20260502035041 30 360 1.6 8.0 0.00 0.00 0.00 14 972.8
20260502034541 30 360 3.2 8.0 0.00 0.00 0.00 14 972.8
20260502034043 30 360 3.2 9.7 0.00 0.00 0.00 14 972.8
20260502033541 30 360 0.0 9.7 0.00 0.00 0.00 14 972.8
20260502033043 30 360 4.8 9.7 0.00 0.00 0.00 14 972.7
20260502032541 30 360 3.2 8.0 0.00 0.00 0.00 14 972.7
20260502032043 30 360 3.2 8.0 0.00 0.00 0.00 14 972.6
20260502031542 30 360 1.6 8.0 0.00 0.00 0.00 14 972.6
20260502031041 30 360 4.8 9.7 0.00 0.00 0.00 13 972.6
20260502030540 30 360 4.8 9.7 0.00 0.00 0.00 14 972.5
20260502030041 30 360 3.2 8.0 0.00 0.00 0.00 14 972.4
20260502025541 30 360 3.2 8.0 0.00 0.00 0.00 14 972.4
20260502025043 30 360 3.2 14.5 0.00 0.00 0.00 14 972.3
20260502024542 30 360 4.8 14.5 0.00 0.00 0.00 14 972.3
20260502024041 30 360 8.0 14.5 0.00 0.00 0.00 15 972.2
20260502023544 30 360 4.8 9.7 0.00 0.00 0.00 15 972.3
20260502023055 30 360 1.6 14.5 0.00 0.00 0.00 14 972.2
20260502022542 30 360 3.2 14.5 0.00 0.00 0.00 14 972.2
20260502022045 30 360 8.0 17.7 0.00 0.00 0.00 14 972.2
20260502021541 31 360 8.0 17.7 0.00 0.00 0.00 14 972.1
20260502021044 31 360 4.8 16.1 0.00 0.00 0.00 14 972.1
20260502020541 31 360 11.3 16.1 0.00 0.00 0.00 14 972.1
20260502020058 31 360 9.7 16.1 0.00 0.00 0.00 13 971.9
20260502015540 31 360 9.7 16.1 0.00 0.00 0.00 14 971.9
20260502015040 31 360 6.4 17.7 0.00 0.00 0.00 14 971.9
20260502014544 31 360 9.7 17.7 0.00 0.00 0.00 14 971.9
20260502014041 31 360 4.8 14.5 0.00 0.00 0.00 15 971.8
20260502013541 31 360 4.8 14.5 0.00 0.00 0.00 15 971.8
20260502013054 31 360 4.8 17.7 0.00 0.00 0.00 15 971.9
20260502012541 31 360 8.0 17.7 0.00 0.00 0.00 15 972.0
20260502012041 31 360 4.8 16.1 0.00 0.00 0.00 15 971.9
20260502011541 31 360 8.0 16.1 0.00 0.00 0.00 15 971.9
20260502011040 31 360 6.4 12.9 0.00 0.00 0.00 15 971.9
20260502010541 31 360 4.8 17.7 0.00 0.00 0.00 15 972.0
20260502010041 31 360 11.3 20.9 0.00 0.00 0.00 15 972.0
20260502005541 31 360 11.3 20.9 0.00 0.00 0.00 15 972.0
20260502005043 31 360 4.8 19.3 0.00 0.00 0.00 16 972.0
20260502004546 31 360 14.5 19.3 0.00 0.00 0.00 16 972.0
20260502004042 31 360 6.4 17.7 0.00 0.00 0.00 16 972.0
20260502003541 31 360 6.4 20.9 0.00 0.00 0.00 15 972.0
20260502003041 31 360 12.9 20.9 0.00 0.00 0.00 16 972.0
20260502002541 31 360 14.5 19.3 0.00 0.00 0.00 17 972.0
20260502002041 31 360 8.0 17.7 0.00 0.00 0.00 17 972.0
20260502001601 31 360 8.0 20.9 0.00 0.00 0.00 17 972.1
20260502001042 31 360 8.0 20.9 0.00 0.00 0.00 18 972.2
20260502000541 31 360 11.3 16.1 0.00 0.00 0.00 18 972.1
20260502000041 31 360 9.7 20.9 0.00 0.00 0.00 18 972.1
20260501235542 31 360 14.5 20.9 0.00 0.00 0.00 18 972.1
20260501235041 31 360 6.4 16.1 0.00 0.00 0.00 17 972.3
20260501234541 31 360 6.4 16.1 0.00 0.00 0.00 17 972.2
20260501234041 31 360 4.8 20.9 0.00 0.00 0.00 17 972.2
20260501233542 31 360 14.5 19.3 0.00 0.00 0.00 17 972.3
20260501233052 31 360 1.6 17.7 0.00 0.00 0.00 17 972.2
20260501232544 31 360 4.8 20.9 0.00 0.00 0.00 18 972.3
20260501232041 31 360 11.3 20.9 0.00 0.00 0.00 18 972.3
20260501231541 31 360 8.0 20.9 0.00 0.00 0.00 18 972.3
20260501231041 31 360 6.4 20.9 0.00 0.00 0.00 18 972.4
20260501230541 31 360 4.8 19.3 0.00 0.00 0.00 19 972.5
20260501230041 30 360 6.4 25.7 0.00 0.00 0.00 19 972.4
20260501225541 31 360 14.5 25.7 0.00 0.00 0.00 19 972.5
20260501225040 31 360 9.7 20.9 0.00 0.00 0.00 21 972.6
20260501224540 30 360 3.2 25.7 0.00 0.00 0.00 20 972.7
20260501224041 30 360 14.5 25.7 0.00 0.00 0.00 22 972.7
20260501223541 30 360 11.3 22.5 0.00 0.00 0.00 21 972.7
20260501223042 30 360 14.5 24.1 0.00 0.00 0.00 21 972.7
20260501222541 30 360 14.5 24.1 0.00 0.00 0.00 22 973.0
20260501222041 30 360 12.9 22.5 0.00 0.00 0.00 23 973.0
20260501221541 30 360 9.7 24.1 0.00 0.00 0.00 23 973.0
20260501221041 30 360 17.7 24.1 0.00 0.00 0.00 23 973.0
20260501220541 30 360 14.5 25.7 0.00 0.00 0.00 23 973.0
20260501220111 30 360 11.3 24.1 0.00 0.00 0.00 23 973.2
20260501215541 30 360 16.1 25.7 0.00 0.00 0.00 23 973.2
20260501215041 30 360 17.7 27.4 0.00 0.00 0.00 24 973.3
20260501214541 30 360 16.1 27.4 0.00 0.00 0.00 23 973.3
20260501214041 30 360 16.1 27.4 0.00 0.00 0.00 21 973.5
20260501213544 30 360 12.9 25.7 0.00 0.00 0.00 23 973.5
20260501213041 30 360 16.1 25.7 0.00 0.00 0.00 23 973.6
20260501212541 30 360 16.1 25.7 0.00 0.00 0.00 24 973.6
20260501212041 30 360 12.9 24.1 0.00 0.00 0.00 23 973.7
20260501211541 30 360 12.9 22.5 0.00 0.00 0.00 24 973.8
20260501211040 30 360 6.4 24.1 0.00 0.00 0.00 23 973.8
20260501210541 30 360 16.1 25.7 0.00 0.00 0.00 23 973.9
20260501210056 30 360 17.7 25.7 0.00 0.00 0.00 23 973.9
20260501205541 30 360 9.7 20.9 0.00 0.00 0.00 23 974.0
20260501205040 30 360 6.4 24.1 0.00 0.00 0.00 21 974.3
20260501204544 30 360 9.7 24.1 0.00 0.00 0.00 22 974.2
20260501204041 30 360 17.7 24.1 0.00 0.00 0.00 22 974.2
20260501203542 29 360 14.5 25.7 0.00 0.00 0.00 23 974.2
20260501203043 28 360 11.3 25.7 0.00 0.00 0.00 22 974.4
20260501202541 28 360 16.1 22.5 0.00 0.00 0.00 23 974.4
20260501202041 29 360 14.5 22.5 0.00 0.00 0.00 23 974.2
20260501201543 29 360 3.2 22.5 0.00 0.00 0.00 23 974.4
20260501201043 29 360 9.7 25.7 0.00 0.00 0.00 23 974.5
20260501200541 29 360 17.7 25.7 0.00 0.00 0.00 24 974.5
20260501200041 28 360 14.5 25.7 0.00 0.00 0.00 24 974.5
20260501195541 28 360 16.1 25.7 0.00 0.00 0.00 24 974.5
20260501195041 28 360 14.5 27.4 0.00 0.00 0.00 25 974.6
20260501194544 28 360 8.0 27.4 0.00 0.00 0.00 24 974.5
20260501194040 28 360 11.3 25.7 0.00 0.00 0.00 24 974.7
20260501193540 28 360 16.1 25.7 0.00 0.00 0.00 25 974.8
20260501193047 28 360 12.9 27.4 0.00 0.00 0.00 25 974.8
20260501192541 28 360 8.0 27.4 0.00 0.00 0.00 25 974.9
20260501192041 28 360 8.0 22.5 0.00 0.00 0.00 25 975.0
20260501191541 28 360 12.9 22.5 0.00 0.00 0.00 26 975.2
20260501191042 28 360 11.3 22.5 0.00 0.00 0.00 26 975.1
20260501190541 28 360 11.3 24.1 0.00 0.00 0.00 26 975.2
20260501190042 28 360 11.3 24.1 0.00 0.00 0.00 26 975.2
20260501185541 28 360 8.0 16.1 0.00 0.00 0.00 27 975.4
20260501185041 27 360 6.4 20.9 0.00 0.00 0.00 27 975.4
20260501184541 27 360 14.5 20.9 0.00 0.00 0.00 27 975.5
20260501184044 27 360 3.2 12.9 0.00 0.00 0.00 29 975.6
20260501183541 26 360 3.2 20.9 0.00 0.00 0.00 29 975.7
20260501183056 26 360 9.7 20.9 0.00 0.00 0.00 29 975.7
20260501182540 27 360 8.0 17.7 0.00 0.00 0.00 29 975.9
20260501182044 27 360 8.0 16.1 0.00 0.00 0.00 28 976.0
20260501181559 27 360 4.8 25.7 0.00 0.00 0.00 28 976.1
20260501181041 27 360 11.3 25.7 0.00 0.00 0.00 28 976.1
20260501180542 27 360 1.6 14.5 0.00 0.00 0.00 28 976.1
20260501180041 27 360 3.2 19.3 0.00 0.00 0.00 28 976.3
20260501175543 27 360 9.7 17.7 0.00 0.00 0.00 28 976.3
20260501175044 27 360 0.0 12.9 0.00 0.00 0.00 28 976.3
20260501174541 27 360 3.2 16.1 0.00 0.00 0.00 29 976.3
20260501174044 26 360 3.2 17.7 0.00 0.00 0.00 30 976.3
20260501173541 26 360 11.3 22.5 0.00 0.00 0.00 31 976.4
20260501173046 26 360 6.4 22.5 0.00 0.00 0.00 31 976.5
20260501172543 26 360 9.7 19.3 0.00 0.00 0.00 30 976.4
20260501172041 26 360 8.0 20.9 0.00 0.00 0.00 31 976.5